Content
SEND FEEDBACK

Daily
Averages
Monthly
Summary
Mexico

PUERTO MORELOS, QUINTANA ROO


Home > North America > Mexico > Quintana Roo
Elevation: 20 feet     Latitude: 20 51N     Longitude: 086 52W

WEATHER
 
SELECT A DAY
Number of Records: 163,931;   Date Range: 1/1/95 - 8/31/14
 
SHARE

PRINT THIS DATA

[ ← Previous Day ]
WEATHER ALMANAC - AUGUST 1, 2013
[ Next Day → ]
[ °C ]   °F
Weather ElementAverageHighLow
Temperature81.9 °F89.6 °F (10:44 am)73.4 °F (4:40 am)
Dewpoint74.8 °F77 °F (8:50 am)71.6 °F (5:43 am)
Humidity80 %100 % (4:40 am)62 % (10:44 am)
Barometer29.96 in30.00 in (9:48 am)29.92 in (4:45 pm)
Wind Speed3.8 mph9.2 mph (12:47 pm)
Weather ElementAverage
Visibility6.7 mi
Wind DirectionSSE (161.3 °)

Weather ElementTotal
Precipitation---
Cooling Degree Days16.5 (Base 65)
Growing Degree Days31.5 (Base 50)
Averaged from 23 records on August 1, 2013
WEATHER CONDITIONS BREAKOUT
WIND DIRECTION BREAKOUT
WEATHER BY HOUR - AUGUST 1, 2013
[ °C ]   °F
Local TimeTemperatureDewpointHumidityBarometerVisibilityWind DirectionWind SpeedGust SpeedPrecipitationEventsConditions
1:48 AM77.0 °F75.2 °F94 %29.97 in6.0 miWNW (300°)3.5 mphScattered Clouds
2:48 AM77.0 °F75.2 °F94 %29.95 in6.0 miWNW (300°)2.3 mphScattered Clouds
3:41 AM75.2 °F73.4 °F94 %29.95 in6.0 miWNW (300°)2.3 mphScattered Clouds
4:40 AM73.4 °F73.4 °F100 %29.93 in6.0 miNW (320°)2.3 mphScattered Clouds
5:43 AM73.4 °F71.6 °F94 %29.93 in6.0 miNW (320°)2.3 mphScattered Clouds
6:40 AM73.4 °F71.6 °F94 %29.96 in6.0 miNNE (20°)3.5 mphPartly Cloudy
7:44 AM78.8 °F75.2 °F89 %29.97 in7.0 miCalmPartly Cloudy
8:50 AM84.2 °F77.0 °F79 %29.97 in7.0 miNorth (350°)3.5 mphScattered Clouds
9:48 AM86.0 °F77.0 °F74 %30.00 in7.0 miNorth (360°)2.3 mphMostly Cloudy
10:44 AM89.6 °F75.2 °F62 %29.99 in7.0 miESE (120°)6.9 mphMostly Cloudy
11:41 AM87.8 °F73.4 °F62 %29.98 in7.0 miEast (90°)5.8 mphMostly Cloudy
12:47 PM87.8 °F75.2 °F66 %29.98 in7.0 miEast (90°)9.2 mphMostly Cloudy
1:45 PM86.0 °F73.4 °F66 %29.98 in7.0 miNW (320°)4.6 mphMostly Cloudy
2:44 PM87.8 °F75.2 °F66 %29.94 in7.0 miSSE (150°)5.8 mphMostly Cloudy
3:47 PM87.8 °F73.4 °F62 %29.94 in7.0 miESE (110°)8.1 mphMostly Cloudy
4:45 PM86.0 °F75.2 °F70 %29.92 in7.0 miENE (60°)4.6 mphMostly Cloudy
5:43 PM86.0 °F75.2 °F70 %29.93 in7.0 miENE (70°)2.3 mphMostly Cloudy
6:45 PM84.2 °F77.0 °F79 %29.94 in7.0 miENE (70°)2.3 mphMostly Cloudy
7:44 PM82.4 °F73.4 °F74 %29.93 in7.0 miENE (60°)2.3 mphScattered Clouds
8:43 PM80.6 °F75.2 °F84 %29.95 in7.0 miENE (60°)2.3 mphScattered Clouds
9:48 PM80.6 °F75.2 °F84 %29.94 in7.0 miESE (110°)5.8 mphScattered Clouds
10:47 PM80.6 °F77.0 °F89 %29.98 in7.0 miSE (130°)5.8 mphScattered Clouds
11:46 PM78.8 °F77.0 °F94 %29.98 in7.0 miCalmScattered Clouds
Hourly data recorded from MMUN, located miles away from Puerto Morelos, Quintana Roo







STORIES FROM OUR PARTNERS